This is the latest recevied weather packets stored in our database for station/object YO4ISC-13. If no packets are shown the sender has not sent any weather packets the latest 10 day(s).
| Time | Temp. | Humidity | Pressure | Rain* | Wind** | Luminosity | Snow |
|---|---|---|---|---|---|---|---|
| 1777647002 | 10.56° C | 56% | 1025 hPa | - | - | - | - |
| 1777646402 | 10.56° C | 55% | 1025 hPa | - | - | - | - |
| 1777645802 | 10.56° C | 57% | 1025 hPa | - | - | - | - |
| 1777645201 | 11.11° C | 54% | 1025 hPa | - | - | - | - |
| 1777644602 | 11.11° C | 52% | 1025 hPa | - | - | - | - |
| 1777644001 | 11.11° C | 53% | 1025 hPa | - | - | - | - |
| 1777643402 | 10.56° C | 54% | 1025 hPa | - | - | - | - |
| 1777642801 | 11.11° C | 57% | 1025 hPa | - | - | - | - |
| 1777642202 | 11.11° C | 53% | 1025 hPa | - | - | - | - |
| 1777641602 | 10.56° C | 52% | 1025 hPa | - | - | - | - |
| 1777641002 | 10.56° C | 55% | 1025 hPa | - | - | - | - |
| 1777640402 | 10.56° C | 55% | 1025 hPa | - | - | - | - |
| 1777639802 | 10.56° C | 49% | 1025 hPa | - | - | - | - |
| 1777639202 | 10.56° C | 56% | 1025 hPa | - | - | - | - |
| 1777638601 | 11.11° C | 55% | 1025 hPa | - | - | - | - |
| 1777638002 | 11.67° C | 52% | 1025 hPa | - | - | - | - |
| 1777637401 | 11.67° C | 47% | 1025 hPa | - | - | - | - |
| 1777636802 | 11.67° C | 45% | 1025 hPa | - | - | - | - |
| 1777636201 | 11.67° C | 48% | 1025 hPa | - | - | - | - |
| 1777635602 | 11.67° C | 47% | 1025 hPa | - | - | - | - |
| 1777635001 | 12.22° C | 44% | 1026 hPa | - | - | - | - |
| 1777634402 | 11.11° C | 49% | 1026 hPa | - | - | - | - |
| 1777633802 | 11.67° C | 48% | 1026 hPa | - | - | - | - |
| 1777633202 | 11.67° C | 49% | 1026 hPa | - | - | - | - |
| 1777632602 | 11.67° C | 49% | 1026 hPa | - | - | - | - |
* Rain since midnight (hover to see other rain measurements)
** Current wind speed in m/s (hover to see current wind gust speed)